Wind_Speed
7 8 9 11 12 12 13 14 13 12 9 9 10 10 9 10 9 8 7 3 6 11 16 15 13 12 12 12 11 11 10 9 7 6 6 6 5 5 5 7 10 13 12
6 7 8 11 12 12 13 14 14 12 10 9 9 9 9 8 6 4 3 2 3 4 7 10 12 11 11 11 10 11 10 9 9 7 6 6 6 6 7 7 9 13 12
6 6 8 10 12 13 13 14 13 12 10 9 9 11 9 6 4 3 3 3 4 6 7 10 12 11 11 11 11 11 10 9 9 8 7 6 6 7 7 8 9 12 14
7 7 8 10 12 13 12 13 12 12 11 10 12 11 9 5 3 3 4 5 7 8 9 11 12 13 12 12 11 11 10 9 8 7 6 6 6 8 10 9 9 11 14
8 8 8 11 12 13 13 12 12 11 11 11 11 9 8 5 4 4 6 7 8 9 10 10 12 13 14 13 12 12 11 10 9 9 9 10 10 9 11 12 9 10 11
8 7 9 12 13 14 14 13 12 11 12 11 9 7 7 5 2 3 4 8 10 11 11 12 13 14 14 14 14 14 13 11 11 12 14 16 15 12 11 13 10 8 8
9 8 10 12 13 13 15 15 13 12 11 10 8 7 7 6 4 3 5 7 12 15 14 14 15 15 15 15 16 16 14 12 11 11 13 15 15 12 10 11 10 9 8
9 9 10 13 14 15 15 16 15 14 13 12 10 8 9 8 6 6 6 6 10 14 15 16 16 16 16 16 17 17 17 14 11 11 12 13 13 12 11 11 9 10 10
10 11 14 15 16 17 17 17 17 17 15 14 13 11 10 10 9 8 8 7 8 11 13 15 16 16 15 15 16 18 18 15 13 13 12 12 14 13 12 11 9 9 10
13 14 17 18 16 17 18 18 19 18 17 15 13 12 11 12 10 9 8 7 7 9 11 14 16 16 16 16 16 18 18 17 16 14 12 13 15 16 15 14 11 10 10
14 17 21 22 17 16 18 20 20 19 17 16 15 13 13 12 10 8 7 7 7 8 10 12 14 15 15 16 18 18 17 17 17 15 14 13 14 16 17 15 14 12 11
17 20 22 21 19 18 19 20 21 20 18 17 17 15 14 11 10 8 7 8 8 8 9 10 12 14 14 15 17 18 17 17 16 15 14 13 13 15 16 16 15 14 13
19 21 23 21 21 21 21 21 21 21 20 18 18 17 14 11 9 7 7 8 9 8 7 7 8 11 15 15 14 14 15 15 14 14 13 13 14 15 17 17 17 16 14
21 23 23 22 20 21 22 20 20 21 21 19 18 16 12 10 9 8 8 9 8 7 6 6 6 8 12 14 15 14 14 14 15 15 14 14 14 15 17 18 18 17 15
23 24 25 25 21 21 19 19 18 19 19 17 16 14 11 10 10 10 9 10 9 8 6 6 7 6 9 11 12 13 14 15 15 16 15 15 14 14 15 16 17 17 16
24 24 27 26 24 23 21 19 18 17 17 15 14 12 11 10 11 11 10 11 11 9 7 7 8 6 7 8 9 11 11 11 13 14 15 16 16 14 13 13 14 15 15
23 22 26 25 23 22 21 18 16 16 16 14 13 14 11 10 12 12 11 13 13 12 9 10 10 7 8 8 9 10 10 9 10 12 14 16 16 15 13 13 13 13 12
25 23 22 24 23 22 21 15 13 15 16 14 13 14 12 11 13 13 13 15 14 12 10 11 11 9 9 7 7 8 9 9 10 11 13 14 16 16 15 15 14 12 11
27 25 22 23 23 22 19 18 16 15 16 15 14 14 14 13 14 15 16 16 14 13 12 13 12 9 10 8 5 5 6 7 10 11 11 12 14 16 17 16 16 14 13
28 25 22 21 19 17 18 19 17 16 16 17 17 17 16 17 18 19 18 17 16 15 14 13 13 13 13 10 7 5 5 5 7 9 11 12 13 14 15 16 17 17 16
27 24 20 17 15 15 16 18 17 16 18 20 22 23 21 20 22 23 22 19 17 15 14 14 14 16 13 11 10 10 7 6 6 6 7 10 13 14 15 15 16 17 17
26 23 20 18 18 18 19 20 19 20 20 21 22 22 22 21 23 25 23 21 20 19 16 16 18 17 14 12 11 12 10 8 8 8 7 9 11 13 14 14 15 16 18
26 23 21 21 23 23 22 22 21 21 21 21 22 22 23 23 24 25 25 24 22 23 21 20 20 19 18 14 11 13 14 12 12 11 11 11 12 13 12 13 15 16 17
23 22 23 24 25 25 24 22 20 20 21 22 21 21 23 24 26 27 26 23 23 24 22 22 23 22 19 17 16 15 15 14 14 14 14 13 12 14 13 14 15 15 17
24 24 25 26 27 26 24 22 20 20 20 20 19 21 23 23 25 27 26 24 24 25 24 22 23 22 20 19 18 16 15 16 15 15 15 14 14 14 15 14 14 14 14
25 25 26 26 25 25 24 23 23 21 19 19 19 22 23 23 25 27 26 27 27 27 26 23 23 22 19 19 19 17 16 17 16 16 17 17 16 16 16 15 15 15 15
Wind_Direction
9 360 353 350 345 340 336 331 326 328 329 323 319 324 329 332 339 348 3 63 196 214 209 209 217 223 219 216 218 223 227 231 222 211 210 210 208 190 186 187 193 199 198
0 347 343 343 341 338 334 330 327 330 331 325 320 325 325 323 326 328 352 82 144 165 186 206 212 215 213 212 218 226 226 225 218 211 202 202 211 206 193 187 190 201 194
2 353 350 347 346 343 340 334 329 329 330 326 324 326 323 314 301 288 268 214 184 177 192 208 215 218 219 219 220 221 219 212 213 217 208 207 222 222 205 193 197 198 192
17 7 0 353 350 345 339 335 327 323 324 324 324 328 329 314 283 260 246 225 205 195 199 207 215 220 221 222 218 215 214 209 214 221 217 218 230 238 224 207 201 194 198
19 8 2 357 349 340 331 325 319 316 319 324 326 333 344 324 272 251 235 226 216 210 213 217 219 221 222 221 216 211 213 214 224 234 237 237 247 260 242 219 202 192 196
13 5 4 359 347 335 327 317 309 307 313 321 326 328 344 344 292 242 245 238 229 223 221 225 226 223 221 220 217 215 217 222 240 253 253 250 250 252 243 217 193 184 189
5 2 359 350 339 328 323 314 302 296 302 312 317 313 319 325 312 278 274 251 236 233 231 233 229 222 217 215 220 224 229 235 250 261 259 249 237 228 224 204 179 177 177
359 1 350 340 331 320 316 313 302 293 296 300 301 299 302 304 297 291 283 256 232 230 234 237 228 218 215 214 221 230 236 241 252 258 251 233 214 205 199 189 183 178 175
355 353 345 336 328 321 313 306 300 297 301 301 299 300 304 300 292 282 278 261 232 226 229 229 224 219 217 218 225 233 240 245 250 249 241 222 209 200 194 195 193 186 179
352 346 334 326 319 315 312 303 296 296 300 301 301 303 308 304 293 280 273 259 234 222 228 234 235 232 229 229 234 238 242 247 249 244 234 221 211 204 203 203 201 190 180
343 336 328 320 312 309 306 303 299 297 297 295 295 297 306 308 293 277 263 250 233 226 233 239 239 237 234 232 239 243 246 249 249 243 228 220 215 210 207 206 202 194 182
336 329 323 313 307 309 305 300 300 301 296 290 288 287 296 302 294 279 255 230 227 230 233 235 233 233 232 230 237 244 247 246 244 237 225 219 217 211 207 205 203 198 192
332 326 321 313 308 311 306 296 298 301 296 289 283 279 283 290 288 275 242 226 228 229 231 235 234 238 237 231 234 241 242 237 231 226 221 217 216 213 210 209 207 204 204
331 327 323 314 309 313 310 294 295 298 294 286 280 274 271 275 272 261 243 229 229 227 228 233 231 244 244 235 237 241 235 229 224 221 220 216 215 216 216 215 213 212 215
329 328 329 319 307 317 320 295 288 293 290 282 279 272 263 262 259 255 239 228 225 223 219 226 226 236 251 240 243 247 237 230 226 222 218 215 214 217 218 217 217 220 226
329 327 323 318 306 308 320 304 295 294 289 281 277 268 258 252 251 256 241 222 219 215 205 221 230 237 256 236 235 243 235 225 220 214 212 211 211 211 212 216 220 226 233
329 319 309 310 301 302 314 303 293 288 284 280 279 269 254 246 244 250 238 219 220 214 214 222 234 243 264 247 236 235 230 220 215 213 211 209 208 206 206 209 213 219 223
325 317 302 295 292 294 305 297 296 285 276 272 276 266 249 235 238 241 235 224 218 221 229 224 233 247 246 249 243 231 223 212 210 210 210 212 215 213 208 207 209 209 208
322 317 305 297 293 290 290 293 299 288 276 265 268 261 240 229 233 237 235 226 222 219 222 222 235 241 231 241 250 230 214 212 211 206 204 209 216 217 216 214 212 211 210
319 315 305 297 295 292 290 291 296 287 276 264 261 261 247 235 232 234 234 227 222 216 220 224 231 233 231 236 245 232 201 210 223 214 208 209 213 216 216 217 217 219 222
316 312 304 295 291 293 296 297 294 287 283 275 265 261 254 243 233 230 231 229 225 222 224 224 226 231 234 238 245 242 228 228 244 236 219 216 219 223 224 224 225 229 231
311 307 300 290 287 293 296 295 291 289 285 279 267 256 245 239 233 228 227 229 231 225 216 216 221 232 239 246 252 247 241 239 248 248 243 232 228 228 228 229 233 234 233
302 299 293 287 287 292 292 290 289 291 290 284 272 253 234 232 232 227 223 225 229 226 224 221 224 232 240 245 251 253 253 255 256 252 250 245 241 239 235 235 239 237 234
295 294 292 289 289 289 289 289 293 295 293 285 270 244 232 230 228 224 221 223 224 224 228 229 234 239 240 246 253 255 253 256 259 256 249 246 247 249 246 242 243 241 238
291 288 288 287 286 286 287 287 291 295 293 282 262 237 231 229 224 221 219 220 220 223 226 227 234 238 238 245 250 250 248 249 249 249 249 246 247 252 256 253 248 244 244
296 291 290 288 285 283 282 282 285 289 291 283 260 238 232 229 224 220 218 220 222 224 225 225 231 235 238 242 245 247 245 246 247 248 250 252 252 250 250 253 256 255 253
Height
5892 5891 5890 5889 5888 5887 5885 5884 5884 5883 5883 5883 5882 5880 5880 5879 5878 5876 5874 5872 5873 5874 5874 5876 5879 5880 5882 5883 5883 5884 5884 5885 5887 5888 5888 5888 5887 5887 5886 5886 5887 5889 5891
5892 5891 5890 5889 5888 5886 5885 5883 5883 5883 5882 5882 5881 5880 5879 5878 5877 5876 5875 5874 5874 5874 5875 5876 5878 5880 5881 5882 5882 5883 5884 5885 5886 5887 5887 5888 5888 5888 5887 5886 5887 5889 5890
5891 5891 5890 5889 5888 5886 5884 5883 5882 5881 5881 5880 5879 5879 5877 5877 5876 5875 5875 5875 5875 5875 5875 5876 5878 5879 5880 5881 5882 5882 5883 5884 5885 5886 5887 5888 5888 5888 5887 5886 5887 5888 5890
5891 5890 5889 5889 5887 5885 5884 5882 5881 5880 5880 5879 5878 5877 5876 5875 5874 5874 5874 5875 5875 5875 5875 5876 5878 5879 5879 5880 5881 5881 5882 5883 5884 5886 5886 5887 5888 5888 5887 5886 5886 5887 5889
5890 5889 5888 5887 5886 5884 5883 5881 5880 5879 5878 5878 5877 5875 5874 5873 5872 5871 5872 5873 5874 5874 5875 5876 5877 5878 5878 5879 5880 5880 5881 5882 5883 5884 5885 5887 5887 5887 5887 5887 5886 5887 5888
5889 5888 5887 5886 5884 5883 5881 5879 5878 5877 5877 5876 5875 5874 5873 5872 5871 5870 5870 5871 5872 5873 5874 5875 5876 5877 5877 5877 5879 5879 5879 5880 5881 5882 5883 5885 5886 5886 5885 5885 5885 5886 5888
5888 5887 5885 5884 5883 5881 5879 5877 5876 5875 5874 5874 5873 5872 5871 5871 5870 5870 5869 5869 5870 5872 5873 5873 5874 5875 5875 5876 5877 5878 5877 5878 5879 5880 5880 5882 5883 5884 5884 5884 5885 5886 5887
5886 5885 5883 5882 5881 5879 5877 5875 5873 5872 5872 5871 5871 5869 5869 5868 5868 5868 5868 5868 5868 5869 5870 5871 5872 5873 5874 5875 5876 5876 5875 5876 5878 5878 5879 5880 5881 5882 5883 5884 5884 5885 5887
5884 5883 5882 5880 5879 5877 5875 5873 5871 5870 5869 5869 5868 5867 5866 5865 5865 5865 5865 5865 5865 5866 5867 5868 5870 5872 5873 5874 5875 5874 5874 5875 5877 5878 5878 5879 5880 5881 5882 5883 5885 5886 5887
5882 5880 5879 5878 5876 5874 5872 5870 5868 5867 5867 5866 5865 5865 5864 5862 5861 5861 5861 5862 5863 5864 5865 5866 5867 5869 5871 5872 5872 5872 5873 5874 5875 5876 5877 5878 5879 5880 5882 5883 5884 5886 5888
5880 5878 5876 5874 5872 5871 5869 5867 5865 5864 5864 5863 5862 5862 5861 5860 5858 5858 5858 5859 5860 5861 5862 5863 5864 5866 5867 5869 5870 5871 5871 5872 5872 5873 5874 5876 5878 5879 5881 5882 5884 5886 5887
5877 5875 5872 5871 5869 5868 5866 5864 5862 5861 5860 5860 5859 5859 5859 5857 5856 5856 5857 5857 5858 5858 5859 5860 5862 5863 5864 5866 5867 5868 5869 5870 5870 5871 5872 5874 5876 5878 5880 5881 5883 5885 5887
5876 5873 5870 5867 5865 5864 5863 5860 5859 5857 5856 5856 5855 5855 5856 5855 5855 5855 5855 5855 5856 5856 5857 5858 5859 5860 5860 5862 5863 5865 5866 5867 5869 5870 5871 5872 5874 5876 5878 5880 5881 5883 5885
5873 5870 5868 5864 5862 5860 5858 5857 5855 5853 5852 5852 5851 5851 5852 5852 5853 5853 5853 5853 5854 5855 5855 5856 5857 5858 5859 5860 5861 5863 5864 5866 5867 5868 5869 5871 5872 5874 5876 5878 5880 5882 5883
5868 5866 5863 5860 5858 5855 5853 5852 5851 5850 5848 5848 5848 5848 5848 5849 5850 5851 5851 5851 5852 5852 5853 5855 5855 5856 5857 5859 5859 5860 5862 5863 5865 5866 5867 5869 5870 5872 5874 5876 5879 5881 5882
5863 5861 5859 5855 5853 5851 5849 5848 5847 5846 5845 5845 5844 5844 5845 5846 5847 5849 5849 5849 5849 5850 5852 5853 5855 5856 5857 5857 5858 5858 5859 5860 5862 5863 5865 5866 5868 5870 5872 5875 5877 5879 5880
5859 5858 5855 5852 5849 5847 5845 5843 5843 5843 5842 5842 5841 5840 5842 5843 5844 5847 5847 5847 5848 5849 5851 5852 5853 5855 5856 5856 5856 5857 5858 5858 5859 5861 5863 5865 5867 5869 5871 5873 5875 5876 5878
5855 5853 5851 5847 5844 5842 5841 5840 5839 5839 5839 5839 5838 5837 5838 5840 5841 5844 5845 5845 5846 5848 5849 5850 5851 5853 5854 5855 5855 5856 5857 5857 5858 5859 5862 5864 5866 5868 5870 5871 5873 5875 5877
5850 5848 5845 5842 5839 5838 5838 5837 5836 5835 5835 5836 5835 5835 5835 5837 5838 5840 5843 5843 5844 5846 5848 5849 5850 5851 5852 5853 5854 5855 5855 5856 5857 5858 5860 5863 5864 5866 5868 5870 5872 5873 5875
5845 5842 5840 5837 5834 5833 5833 5833 5832 5831 5831 5831 5831 5831 5831 5833 5834 5836 5840 5842 5842 5843 5845 5846 5848 5850 5851 5852 5853 5854 5855 5856 5856 5857 5859 5861 5863 5864 5866 5867 5869 5871 5872
5840 5838 5836 5833 5831 5830 5829 5828 5827 5826 5826 5826 5826 5826 5826 5827 5829 5831 5836 5839 5840 5841 5842 5843 5846 5848 5850 5850 5851 5852 5854 5855 5856 5857 5858 5859 5861 5862 5863 5864 5866 5868 5870
5836 5834 5832 5830 5829 5827 5825 5824 5823 5822 5821 5820 5819 5820 5820 5821 5823 5826 5831 5834 5836 5838 5839 5841 5843 5845 5847 5848 5849 5850 5851 5854 5855 5856 5857 5858 5859 5859 5860 5862 5863 5865 5866
5831 5830 5828 5826 5824 5822 5821 5819 5818 5817 5816 5814 5813 5813 5814 5816 5818 5820 5824 5829 5832 5834 5836 5838 5840 5842 5844 5845 5846 5848 5849 5850 5852 5854 5855 5856 5857 5857 5858 5859 5860 5861 5862
5827 5825 5823 5821 5819 5817 5815 5813 5812 5812 5810 5808 5807 5807 5809 5811 5812 5814 5818 5823 5826 5829 5831 5833 5836 5838 5840 5841 5843 5845 5847 5848 5849 5850 5852 5854 5854 5854 5855 5856 5857 5857 5859
5822 5820 5818 5815 5813 5810 5809 5808 5808 5807 5805 5803 5802 5802 5803 5805 5807 5809 5812 5817 5820 5823 5826 5829 5831 5833 5835 5837 5839 5841 5843 5845 5845 5845 5847 5849 5850 5851 5851 5853 5854 5854 5855
5816 5814 5811 5808 5806 5804 5803 5802 5802 5801 5800 5799 5798 5797 5798 5800 5802 5804 5807 5811 5815 5818 5820 5823 5826 5829 5831 5833 5835 5836 5838 5841 5842 5841 5842 5844 5846 5847 5847 5849 5850 5850 5851